APSTAR-6C

Last updated on Tue Sep 22 2026 00:03:14 GMT+0000 (Coordinated Universal Time)

1 43450U 18041A 26264.16433817 -.00000322 00000+0 00000+0 0 9999 2 43450 0.0515 317.9766 0001917 270.8896 324.3689 1.00270670 30771
UTC large
Height (km)
Speed (km/s)
/
Latitude / Longitude
Inclination (degrees)
Orbital Period (minutes)
Azimuth
Elevation
Range (km)
Doppler Factor

Next 0 passes for location: London (51.5072 / 0.1276)

No passes found over London.
APSTAR-6C